Terug naar catalogus

ORBCOMM FM 11

ActiefCommunicatieLEO
NORAD 25114·PAYLOAD·🇺🇸 United States

Gelanceerd Dec 23, 1997 vanaf Cape Canaveral Space Force Station

Loading…

Volgende Passages (komende 24 uur)

TLE

VersSource: Space-Track

Epoch: Sep 14, 2026, 13:41 UTC

1 25114U 97084C   26257.57039591  .00000798  00000-0  25767-3 0  9996
2 25114  45.0147 348.2565 0003685 342.2053  17.8669 14.46870570507258

Volg ORBCOMM FM 11 in realtime met AllMySat

Download on the App Store